[[{"header":{"parameterUnit":"m.s-1","parameterCategory":1,"la1":30.2991,"la2":30.254,"lo1":-89.0895,"lo2":-89.0444,"dy":0.0017,"dx":0.0017,"nx":28,"ny":28,"refTime":"2025-03-27T09:00:00:Z","depth":0,"parameterNumber":2,"parameterNumberName":"U-component_of_WINDS"},"data":[0,0,0,0,0,0,0,0,0,0,0,0,0,0,0,0,0,0,0,0,0,0,0,0,0,0,0,0,0,0,0,0,0,0,0,0,0,0,0,0,0,0,0,0,0,0,0,0,0,0,0,0,0,0,0,0,0,0,-5.5361,-5.5363,0,-5.5492,-5.5493,-5.5495,-5.5536,-5.5535,-5.5535,-5.5534,-5.5666,-5.567,-5.5674,0,0,0,0,0,0,0,0,0,0,0,0,0,-5.5147,-5.5151,-5.5361,-5.5363,-5.5364,-5.5492,-5.5493,-5.5495,-5.5536,-5.5535,-5.5535,-5.5534,-5.5665,-5.567,-5.5674,0,0,0,0,0,0,0,0,0,0,0,0,0,-5.5255,-5.5152,-5.5361,-5.54,-5.5405,-5.5491,-5.5493,-5.5496,-5.5536,-5.5535,-5.5534,-5.5534,-5.5663,-5.5669,-5.5675,-5.5731,0,0,-5.5694,-5.5696,0,0,0,0,0,0,0,0,-5.5249,-5.5263,-5.5393,-5.5398,-5.5403,-5.5497,-5.5466,-5.5574,-5.5536,-5.5486,-5.5534,-5.5533,-5.561,-5.5621,-5.5647,-5.5737,-5.5743,-5.5694,-5.5698,-5.5701,-5.5702,0,0,0,0,0,0,0,-5.5241,-5.5258,-5.5413,-5.5395,-5.5401,-5.5411,-5.5426,-5.5487,-5.5552,-5.5491,-5.5494,-5.5509,-5.5613,-5.5641,-5.5651,-5.5745,-5.5694,-5.57,-5.5703,-5.5706,-5.5889,-5.589,0,0,0,0,0,0,-5.5227,-5.5251,-5.5409,-5.5417,-5.5322,-5.5416,-5.5432,-5.5468,-5.5551,-5.5563,-5.551,-5.551,-5.5631,-5.5643,-5.5655,-5.5727,-5.5701,-5.5706,-5.571,-5.5888,-5.5889,-5.589,0,0,0,0,0,0,-5.5223,-5.5241,-5.5403,-5.5335,-5.5356,-5.5421,-5.546,-5.5471,-5.5499,-5.5566,-5.5577,-5.5526,-5.5631,-5.5647,-5.5712,-5.5732,-5.5709,-5.5715,-5.5886,-5.5888,-5.589,-5.5869,0,0,0,0,0,0,-5.5216,-5.5239,-5.5261,-5.5335,-5.536,-5.5458,-5.5462,-5.5474,-5.5509,-5.5512,-5.5584,-5.5596,-5.5631,-5.5703,-5.5718,-5.574,-5.5719,-5.5885,-5.5887,-5.5889,-5.5868,-5.587,-5.5872,0,0,0,0,0,-5.5209,-5.5249,-5.5262,-5.528,-5.5388,-5.5459,-5.5473,-5.5514,-5.5511,-5.5533,-5.5577,-5.5593,-5.5728,-5.5709,-5.5727,-5.575,-5.5884,-5.5886,-5.5889,-5.5868,-5.587,-5.5871,0,0,0,0,0,0,-5.5174,-5.5259,-5.5274,-5.534,-5.5392,-5.5466,-5.5495,-5.5515,-5.5568,-5.5568,-5.5616,-5.5632,-5.5694,-5.5729,-5.5707,-5.581,-5.5806,-5.5813,-5.5784,-5.5787,-5.5788,-5.5777,-5.5724,0,0,0,0,0,-5.5174,-5.5225,-5.5297,-5.5348,-5.5374,-5.543,-5.5462,-5.549,-5.5545,-5.5567,-5.5615,-5.5668,-5.5722,-5.5757,-5.581,-5.5875,-5.5891,-5.59,-5.5901,-5.5902,-5.5907,-5.5944,-5.5949,-5.5899,-5.5899,-5.5899,0,0,-5.5175,-5.5228,-5.5257,-5.5342,-5.5386,-5.5437,-5.5448,-5.5501,-5.554,-5.5575,-5.564,-5.5677,-5.574,-5.5805,-5.5836,-5.5836,-5.5925,-5.5906,-5.5906,-5.591,-5.5947,-5.5952,-5.5956,-5.5901,-5.5901,-5.5901,0,0,-5.5202,-5.5247,-5.5295,-5.5339,-5.5405,-5.5443,-5.5455,-5.5526,-5.5553,-5.5619,-5.5647,-5.5694,-5.5786,-5.583,-5.5864,-5.5911,-5.5928,-5.5927,-5.5934,-5.597,-5.5974,-5.5977,-5.5994,-5.5999,-5.5932,-5.5931,-5.5931,0,-5.5194,-5.5272,-5.5317,-5.5369,-5.5407,-5.5443,-5.5492,-5.5532,-5.5612,-5.5637,-5.5636,-5.5755,-5.5799,-5.5875,-5.5887,-5.5914,-5.5929,-5.5917,-5.597,-5.5974,-5.5978,-5.5994,-5.6,-5.5931,-5.5931,-5.5931,-5.5931,0,-5.5259,-5.5313,-5.5344,-5.5421,-5.5462,-5.5512,-5.5565,-5.5602,-5.5626,-5.5664,-5.5732,-5.5787,-5.5853,-5.5874,-5.5898,-5.5954,-5.5952,-5.596,-5.5957,-5.5981,-5.5997,-5.6003,-5.593,-5.593,-5.593,-5.593,0,0,-5.5264,-5.5368,-5.5379,-5.5415,-5.5492,-5.5535,-5.5588,-5.5653,-5.5683,-5.5738,-5.5783,-5.5862,-5.5871,-5.591,-5.594,-5.5971,-5.6005,-5.5976,-5.5978,-5.5978,-5.607,-5.6062,-5.6069,-5.6018,-5.6019,-5.602,-5.6065,0,-5.53,-5.5396,-5.5439,-5.5515,-5.5566,-5.5603,-5.5649,-5.5701,-5.5739,-5.5788,-5.5829,-5.5884,-5.5892,-5.5915,-5.5949,-5.5993,-5.6023,-5.5991,-5.606,-5.6062,-5.6041,-5.6077,-5.6069,-5.6108,-5.6071,-5.6072,-5.6073,0,-5.5354,-5.541,-5.5491,-5.5564,-5.5587,-5.5627,-5.5692,-5.5738,-5.5799,-5.5824,-5.5869,-5.5898,-5.5956,-5.5951,-5.6031,-5.6008,-5.6039,-5.6066,-5.6068,-5.6075,-5.6067,-5.6083,-5.6121,-5.6126,-5.6083,-5.6083,-5.6082,0,-5.5349,-5.5445,-5.5507,-5.5537,-5.5623,-5.5651,-5.5688,-5.5748,-5.5785,-5.5842,-5.5866,-5.5929,-5.5962,-5.601,-5.6056,-5.6048,-5.6131,-5.613,-5.6153,-5.6152,-5.6167,-5.6165,-5.6209,-5.619,-5.619,-5.619,-5.619,0,-5.5384,-5.5432,-5.5506,-5.5543,-5.5599,-5.5649,-5.5702,-5.5742,-5.5796,-5.5842,-5.5878,-5.592,-5.5979,-5.6029,-5.6065,-5.6126,-5.6141,-5.6163,-5.6172,-5.6159,-5.6156,-5.6178,-5.6176,-5.6191,-5.6191,-5.6191,-5.619,0,-5.5387,-5.5438,-5.5507,-5.5584,-5.5605,-5.5642,-5.5708,-5.5746,-5.5787,-5.5845,-5.5861,-5.5925,-5.5986,-5.6037,-5.6117,-5.6141,-5.6204,-5.6215,-5.6183,-5.6187,-5.6207,-5.6204,-5.6266,-5.6276,-5.6251,-5.6251,-5.6251,0,-5.5404,-5.5442,-5.5524,-5.5558,-5.5595,-5.5648,-5.5687,-5.5739,-5.5777,-5.5851,-5.588,-5.5944,-5.5998,-5.6094,-5.6147,-5.6209,-5.6221,-5.6239,-5.623,-5.6216,-5.622,-5.6217,-5.6221,-5.6238,-5.6238,-5.6238,-5.6238,0,-5.543,-5.5455,-5.5509,-5.5572,-5.5618,-5.567,-5.5723,-5.5749,-5.5811,-5.5853,-5.5916,-5.5958,-5.6041,-5.6103,-5.6172,-5.621,-5.6234,-5.6241,-5.6249,-5.6236,-5.6215,-5.6226,-5.6183,-5.6239,-5.6239,-5.6239,-5.6238,-5.6238,-5.5441,-5.5477,-5.554,-5.5599,-5.5645,-5.5695,-5.5735,-5.5781,-5.5835,-5.5906,-5.5934,-5.5999,-5.6061,-5.6154,-5.6194,-5.6246,-5.6248,-5.6261,-5.6264,-5.6265,-5.6263,-5.6209,-5.6258,-5.6258,-5.6258,-5.6258,-5.6259,0,-5.5468,-5.5511,-5.5565,-5.5639,-5.5686,-5.5707,-5.5768,-5.5806,-5.5862,-5.5918,-5.5971,-5.6044,-5.6106,-5.6165,-5.623,-5.626,-5.6273,-5.6276,-5.6273,-5.6282,-5.6257,-5.6243,-5.6264,-5.6264,-5.6264,-5.6264,-5.6264,-5.6264,-5.5487,-5.5549,-5.5581,-5.5666,-5.5709,-5.5773,-5.5806,-5.5852,-5.5897,-5.5977,-5.6029,-5.6068,-5.6125,-5.6195,-5.6254,-5.627,-5.6291,-5.629,-5.6309,-5.6285,-5.6283,-5.6282,-5.6269,-5.6295,-5.6295,-5.6329,-5.6329,-5.633]},{"header":{"parameterUnit":"m.s-1","parameterCategory":1,"la1":30.2991,"la2":30.254,"lo1":-89.0895,"lo2":-89.0444,"dy":0.0017,"dx":0.0017,"nx":28,"ny":28,"refTime":"2025-03-27T09:00:00:Z","depth":0,"parameterNumber":3,"parameterNumberName":"V-component_of_WINDS"},"data":[0,0,0,0,0,0,0,0,0,0,0,0,0,0,0,0,0,0,0,0,0,0,0,0,0,0,0,0,0,0,0,0,0,0,0,0,0,0,0,0,0,0,0,0,0,0,0,0,0,0,0,0,0,0,0,0,0,0,4.5692,4.5694,0,4.5811,4.5812,4.5813,4.5884,4.5884,4.5884,4.5885,4.6002,4.6004,4.6007,0,0,0,0,0,0,0,0,0,0,0,0,0,4.5527,4.5529,4.5692,4.5694,4.5695,4.581,4.5812,4.5814,4.5884,4.5884,4.5884,4.5885,4.6001,4.6004,4.6007,0,0,0,0,0,0,0,0,0,0,0,0,0,4.5617,4.553,4.5692,4.5744,4.575,4.581,4.5812,4.5814,4.5883,4.5884,4.5884,4.5885,4.6,4.6004,4.6008,4.6024,0,0,4.6021,4.6023,0,0,0,0,0,0,0,0,4.5612,4.5623,4.5735,4.5741,4.5747,4.5833,4.5797,4.5884,4.5883,4.5833,4.5885,4.5885,4.5945,4.5954,4.5975,4.603,4.6035,4.6021,4.6024,4.6026,4.6027,0,0,0,0,0,0,0,4.5605,4.5618,4.5739,4.5737,4.5744,4.5762,4.5775,4.5814,4.5884,4.5837,4.5843,4.5856,4.5948,4.597,4.5978,4.6036,4.6021,4.6025,4.6027,4.6029,4.6116,4.6115,0,0,0,0,0,0,4.5591,4.5613,4.5735,4.5743,4.568,4.5764,4.5779,4.5805,4.5884,4.5897,4.5855,4.5859,4.5963,4.5973,4.5982,4.601,4.6025,4.6029,4.6032,4.6116,4.6115,4.6115,0,0,0,0,0,0,4.5587,4.5601,4.5731,4.5679,4.5697,4.5766,4.5795,4.5807,4.5829,4.5898,4.5911,4.5865,4.5964,4.5976,4.6015,4.6014,4.6031,4.6035,4.6116,4.6116,4.6115,4.6062,0,0,0,0,0,0,4.5582,4.56,4.5606,4.5679,4.57,4.5761,4.5795,4.5809,4.5837,4.5842,4.591,4.5922,4.5965,4.6008,4.6019,4.6021,4.6038,4.6116,4.6116,4.6115,4.6064,4.606,4.6056,0,0,0,0,0,4.5576,4.5585,4.5606,4.5621,4.5709,4.5761,4.5772,4.5823,4.5836,4.5844,4.5889,4.592,4.6013,4.6011,4.6024,4.6027,4.6117,4.6116,4.6115,4.6066,4.6061,4.6057,0,0,0,0,0,0,4.5508,4.5595,4.562,4.5652,4.5699,4.5772,4.5783,4.5815,4.5857,4.586,4.592,4.5935,4.5968,4.6001,4.5998,4.6049,4.6068,4.607,4.6026,4.6022,4.6018,4.601,4.6042,0,0,0,0,0,4.5497,4.5532,4.5606,4.5627,4.565,4.5712,4.5736,4.5772,4.5822,4.5841,4.5889,4.5935,4.5976,4.6001,4.6041,4.607,4.6087,4.6079,4.6075,4.6071,4.6072,4.6093,4.6091,4.6113,4.6114,4.6114,0,0,4.5474,4.5526,4.5544,4.5615,4.5655,4.5691,4.5728,4.5763,4.579,4.5846,4.5886,4.5923,4.5979,4.6014,4.6031,4.6043,4.607,4.607,4.6067,4.607,4.6092,4.609,4.6088,4.6113,4.6113,4.6113,0,0,4.545,4.5492,4.5517,4.5558,4.5619,4.5662,4.5667,4.5737,4.5765,4.5807,4.5851,4.5884,4.5951,4.599,4.6019,4.6016,4.6047,4.6027,4.6006,4.6026,4.6025,4.6023,4.6024,4.6024,4.6028,4.6028,4.6028,0,4.5413,4.5469,4.5525,4.5559,4.559,4.5645,4.5671,4.5708,4.5778,4.5799,4.5811,4.59,4.5941,4.5987,4.5987,4.6008,4.6017,4.6019,4.6021,4.602,4.602,4.6021,4.6021,4.6025,4.6025,4.6026,4.6026,0,4.5422,4.546,4.5472,4.5543,4.5575,4.5604,4.5666,4.5692,4.5725,4.5767,4.581,4.5863,4.5917,4.593,4.5962,4.5982,4.5988,4.6009,4.603,4.6014,4.6017,4.6017,4.6021,4.6022,4.6023,4.6024,0,0,4.5356,4.546,4.5464,4.5498,4.5572,4.5603,4.5636,4.5691,4.5713,4.5761,4.5791,4.5849,4.5871,4.5904,4.5941,4.5958,4.5956,4.5979,4.5981,4.5974,4.5985,4.5968,4.5968,4.5977,4.5977,4.5978,4.598,0,4.5344,4.5408,4.5461,4.5505,4.5542,4.5598,4.5627,4.5676,4.5716,4.5754,4.5798,4.584,4.5864,4.5885,4.5905,4.5952,4.5959,4.5952,4.6006,4.6008,4.5991,4.5969,4.5951,4.5951,4.5982,4.5982,4.5982,0,4.5339,4.5388,4.5436,4.551,4.5528,4.5553,4.561,4.5645,4.5703,4.5731,4.577,4.581,4.5849,4.5866,4.5921,4.5915,4.5941,4.5968,4.5969,4.5976,4.5994,4.5977,4.5952,4.5953,4.5984,4.5983,4.5983,0,4.5288,4.5366,4.5406,4.5433,4.552,4.5538,4.5574,4.5633,4.5664,4.5713,4.5735,4.5787,4.5816,4.5856,4.5909,4.5916,4.596,4.598,4.5985,4.5984,4.5991,4.599,4.5971,4.6006,4.6006,4.6006,4.6006,0,4.527,4.5298,4.5386,4.541,4.5443,4.5505,4.5537,4.5578,4.5631,4.5665,4.5715,4.5746,4.5815,4.5854,4.5896,4.5937,4.5949,4.5974,4.5985,4.597,4.5967,4.5987,4.5989,4.6006,4.6006,4.6006,4.6006,0,4.5219,4.5279,4.5327,4.5407,4.5428,4.5449,4.5518,4.5544,4.5589,4.5632,4.5645,4.5715,4.5765,4.5823,4.589,4.5919,4.5957,4.5972,4.5938,4.5944,4.5946,4.5946,4.5941,4.5944,4.5975,4.5974,4.5974,0,4.5204,4.5228,4.5311,4.5339,4.5375,4.5418,4.5452,4.5514,4.5547,4.5617,4.5635,4.5689,4.5736,4.5812,4.5869,4.5922,4.594,4.5935,4.5948,4.5933,4.5942,4.594,4.5944,4.593,4.593,4.5929,4.5929,0,4.5172,4.5202,4.5248,4.5306,4.5345,4.5392,4.5442,4.5462,4.5535,4.5569,4.5622,4.5658,4.573,4.5783,4.5844,4.5882,4.5918,4.5925,4.5929,4.5914,4.5894,4.5907,4.5929,4.5924,4.5925,4.5925,4.5925,4.5925,4.514,4.5165,4.5229,4.528,4.5325,4.5372,4.5402,4.5452,4.5497,4.5562,4.5596,4.5649,4.5709,4.5795,4.5832,4.5875,4.5887,4.5892,4.5894,4.5895,4.5891,4.5887,4.5886,4.5886,4.5886,4.5886,4.5887,0,4.5112,4.5157,4.5204,4.5274,4.5315,4.5348,4.5406,4.5437,4.5484,4.5538,4.5584,4.5646,4.5699,4.5762,4.5819,4.5841,4.586,4.5854,4.5854,4.5863,4.5876,4.5868,4.5839,4.5839,4.5839,4.5839,4.5839,4.5839,4.5102,4.5147,4.5185,4.5253,4.5298,4.5352,4.5382,4.5426,4.547,4.5538,4.5584,4.5625,4.5683,4.5746,4.5797,4.5814,4.5834,4.5824,4.5846,4.5857,4.5861,4.5865,4.5857,4.5827,4.5827,4.5829,4.5829,4.5829]}]]